Location: Unspecified
(0.0000°N, 0.0000°E)
Time: 02:10:59
(UTC+00:00)

Vanguard 1 Rocket - Pass Details

Date: 27 March 2018
Orbit: 652 x 4225 km, 34.3° (Epoch: 18 July)

Event Time Altitude Azimuth Distance (km) Brightness Sun altitude
Rises 08:45:05 0° 224° (SW) 6,767 11.5 39.9°
Reaches altitude 10° 08:50:50 10° 218° (SW) 5,118 11.0 41.3°
Maximum altitude 09:02:29 38° 154° (SSE) 2,141 10.0 44.2°
Drops below altitude 10° 09:08:57 10° 87° (E) 2,856 11.0 45.8°
Sets 09:11:13 0° 78° (ENE) 3,551 11.2 46.4°
